Location: Dehesa de la Cepeda
(40.6574°N, 4.3013°W)
Time: 02:02:22
(UTC+00:00)

Courier 1B - Pass Details

Date: 04 August 2021
Orbit: 963 x 1209 km, 28.3° (Epoch: 17 September)

Event Time Altitude Azimuth Distance (km) Brightness Sun altitude
Rises 17:49:13 0° 230° (SW) 4,062 11.4 17.4°
Reaches altitude 10° 17:52:33 10° 218° (SW) 3,120 10.6 16.7°
Maximum altitude 17:58:44 26° 165° (SSE) 2,162 9.2 15.6°
Drops below altitude 10° 18:04:57 10° 113° (ESE) 3,132 9.6 14.4°
Sets 18:08:17 0° 101° (E) 4,081 10.1 13.8°
